Flag for U.S.A. Weather past 2 weeks in Fairfax, Virginia, U.S.A.

Now
35 °F

Passing clouds.


Feels Like: 26 °F
Forecast: 30 / 41 °F
Wind: 14 mph from Northwest

Location: Washington-Dulles International Airport

Current Time: Dec 18, 2014 at 4:10:48 AM

Latest Report: Dec 18, 2014 at 2:52 AM


Visibility: 10 mi

Pressure: 30.11 "Hg

Humidity: 59%

Dew point: 22 °F

Location of FairfaxLocation

Historic Weather in Fairfax — Graph

°F

Fairfax temperature yesterday

Maximum temperature yesterday: 50 °F (at 12:52 PM)
Minimum temperature yesterday: 34 °F (at 7:52 AM)
Average temperature yesterday: 41 °F

Past Weeks' High & Low Weather Summary

 TemperatureHumidityPressure
High57 °F (Dec 15, 2:52 PM)100% (Dec 3, 3:52 AM)30.59 "Hg (Dec 3, 3:52 AM)
Low25 °F (Dec 13, 3:52 AM)26% (Dec 11, 8:52 PM)29.83 "Hg (Dec 10, 1:52 PM)
Average39 °F72%30.14 "Hg
* Reported Dec 3 2:52 AM — Dec 18 2:52 AM, Fairfax, Weather by CustomWeather, © 2014

Note: Actual official high and low records may vary slightly from our data, if they occured in-between our weather recording intervals... More about our weather records

Advertising

Fairfax weather history for previous 24 hours

 ConditionsComfort  
Time TempWeatherWind HumidityBarometerVisibility
2:52 AM
Dec 18
35 °FPassing clouds.14 mph59%30.11 "Hg10 mi
1:52 AM35 °FPassing clouds.16 mph59%30.09 "Hg10 mi
12:52 AM36 °FPassing clouds.18 mph54%30.09 "Hg10 mi
11:52 PM
Dec 17
36 °FPassing clouds.8 mph62%30.08 "Hg10 mi
10:52 PM36 °FPassing clouds.13 mph62%30.07 "Hg10 mi
9:52 PM36 °FPassing clouds.9 mph62%30.06 "Hg10 mi
8:52 PM37 °FClear.18 mph60%30.06 "Hg10 mi
7:52 PM38 °FPassing clouds.14 mph63%30.05 "Hg10 mi
6:52 PM40 °FPassing clouds.10 mph55%30.04 "Hg10 mi
5:52 PM41 °FPassing clouds.12 mph55%30.02 "Hg10 mi
4:52 PM44 °FPassing clouds.18 mph51%30.00 "Hg10 mi
3:52 PM47 °FScattered clouds.18 mph48%29.99 "Hg10 mi
2:52 PM49 °FScattered clouds.14 mph48%29.99 "Hg10 mi
1:52 PM50 °FBroken clouds.18 mph48%29.97 "Hg10 mi
12:52 PM50 °FBroken clouds.16 mph50%29.98 "Hg10 mi
11:52 AM49 °FBroken clouds.16 mph57%30.00 "Hg10 mi
10:52 AM49 °FPartly sunny.16 mph64%30.01 "Hg10 mi
9:52 AM49 °FPassing clouds.8 mph69%30.01 "Hg10 mi
8:52 AM44 °FScattered clouds.3 mph85%30.00 "Hg10 mi
7:52 AM34 °FScattered clouds.5 mph97%29.99 "Hg10 mi
6:52 AM35 °FClear.No wind92%29.97 "Hg10 mi
5:52 AM36 °FPassing clouds.No wind97%29.95 "Hg10 mi
4:52 AM36 °FClear.5 mph97%29.93 "Hg10 mi
Weather by CustomWeather, © 2014

See weather overviewHow to use our weather pages